默认 日期 大小 文件数 浏览量 最新下载 xml
chronicle磁力链接相关资源由用户搜索指令自动获取,结果来源于网络,本站不存储任何资料,亦不承担任何责任,请于24小时内删除,搜索到2555个磁力,用时80ms。
    ... ].[DHD].mkv": 1119139842, "Tsubasa.Reservoir.Chronicle.-.02.[1080p.BluRay.x264].[10bit ... ].[DHD].mkv": 1200875835, "Tsubasa.Reservoir.Chronicle.-.03.[1080p.BluRay.x264].[10bit ... DHD].mkv": 1122632209, "Tsubasa.Reservoir.Chronicle.-.04.[1080p.BluRay.x264].[10bit ...
创建时间: 2018-11-10 05:17:46 大小:28.99 GB 文件数量:26 热度:6 最近下载:2024-09-06 19:57:02
    {"[Owari-Pantaloni Rossi] Chain Chronicle - Haecceitas no Hikari 01 [ ... 1133120899, "[Owari-Pantaloni Rossi] Chain Chronicle - Haecceitas no Hikari 03 [92E7BCBE ... 1312757836, "[Owari-Pantaloni Rossi] Chain Chronicle - Haecceitas no Hikari 02v2 [1AC444C3 ...
创建时间: 2018-11-10 05:36:45 大小:3.56 GB 文件数量:3 热度:10 最近下载:2024-12-27 05:46:01
    {"DISC": {"Creedence Clearwater Revival - Lodi - 16.mp3": 3102729, "Creedence Clearwater Revival - Molina - 18.mp3": 2671134, "Creedence Clearwater Revival - Commotion - 15.mp3": 2664879, "Creedence Clearwater Revival - Proud Mary - 01.mp3": 3052689, " ...
创建时间: 2018-11-10 07:38:52 大小:57.63 MB 文件数量:22 热度:6 最近下载:2025-04-25 06:28:02
    {"VIDEO_TS": {"VIDEO_TS.BUP": 16384, "VIDEO_TS.IFO": 16384, "VIDEO_TS.VOB": 32768, "VTS_01_0.BUP": 22528, "VTS_01_0.IFO": 22528, "VTS_01_0.VOB": 147456, "VTS_01_1.VOB": 10031104, "VTS_02_0.BUP": 20480, "VTS_02_0.IFO": 20480, "VTS_02_0.VOB": 2693120, " ...
创建时间: 2018-11-10 08:01:24 大小:5.06 GB 文件数量:19 热度:10 最近下载:2025-02-04 08:37:02
    ... ニクル (_Kuuhaku_ no Chronicle).mp3": 819505, "19 キミ ... ニクル (_Hajimari_ no Chronicle).mp3": 8731481, "12 蒼と ...
创建时间: 2018-11-10 19:07:01 大小:194.92 MB 文件数量:36 热度:6 最近下载:2025-03-29 02:19:02
    ... ": 8296618}, "kinesismenu.swf": 32599342, "kinetic chronicle 0.13b.exe": 99682458}
创建时间: 2018-11-10 20:44:38 大小:227.73 MB 文件数量:10 热度:9 最近下载:2025-08-14 19:42:01
    {"Peter F. Hamilton - Chronicle of the Fallers 2 - Night ... .mp3": 763103712, "Peter F. Hamilton - Chronicle of the Fallers 2 - Night ... .txt": 1438, "Peter F. Hamilton - Chronicle of the Fallers 2 - Night ...
创建时间: 2018-11-10 23:01:11 大小:727.8 MB 文件数量:3 热度:14 最近下载:2025-10-10 10:26:02
    ... ": 879676, "Queen - The Unobtainable Royal Chronicle Volume 2.cue": 2793, "Queen ... - The Unobtainable Royal Chronicle Volume 2.log": 3888, "Queen ... - The Unobtainable Royal Chronicle Volume 2.flac": 514562439}
创建时间: 2018-11-11 00:57:53 大小:493.34 MB 文件数量:8 热度:6 最近下载:2025-01-12 09:59:06
    {"The Wise Man's Fear": {"000.mp3": 2672125, "001.mp3": 15869507, "002.mp3": 25373899, "003.mp3": 9518304, "004.mp3": 9791335, "005.mp3": 30106032, "006.mp3": 22919433, "007.mp3": 25761347, "008.mp3": 13237618, "009.mp3": 9789141, "010.mp3": 22498130, "011 ...
创建时间: 2018-11-11 01:14:00 大小:2.86 GB 文件数量:253 热度:4 最近下载:2023-04-13 15:30:05
    ... ).mp3": 8839168, "Nipponsei - Tsubasa Chronicle ED Single.txt": 399}, "[Nipponsei ... ] Tsubasa Chronicle Original Soundtrack - Future Soundscape I ... justice.mp3": 4991104, "Tsubasa Chronicle Original Soundtrack - Future Soundscape I ...
创建时间: 2018-11-11 07:49:31 大小:192.17 MB 文件数量:48 热度:9 最近下载:2025-10-13 05:22:01
    {"Torrent_downloaded_from_Demonoid_-_www.demonoid.pw_.txt": 59, "World of Warcraft Chronicle - Volume II (2017) (digital) (Minutemen-Midas).cbr": 365030581}
创建时间: 2018-11-11 09:07:41 大小:348.12 MB 文件数量:2 热度:8 最近下载:2025-03-26 10:56:03
    {"01 The Emperor's Blades.mp3": 811848422, "03 The Last Mortal Bond.mp3": 858415352, "02 The Providence of Fire.mp3": 681579045}
创建时间: 2018-11-11 19:13:35 大小:2.19 GB 文件数量:3 热度:10 最近下载:2025-03-05 06:10:02
    {"The Kingkiller Chronicle 01 - The Name of the ... ": 3007298}, "Patrick Rothfuss - The Kingkiller Chronicle 02 - The Wise Man's ...
创建时间: 2018-11-11 20:08:24 大小:2.28 GB 文件数量:248 热度:8 最近下载:2025-01-23 04:38:01
    {"ECLiPSE.txt": 20065, "Read Me.txt": 1198, "Battle of Britain A day-to-day chronicle, 10 July-31 October 1940.epub": 2001493}
创建时间: 2018-11-12 05:53:05 大小:1.93 MB 文件数量:3 热度:10 最近下载:2025-04-20 02:30:02
    {"World of Warcraft Chronicle Volume 1.pdf": 303455011, "World of Warcraft Chronicle Volume 2.pdf": 369212314}
创建时间: 2018-11-12 09:25:19 大小:641.51 MB 文件数量:2 热度:10 最近下载:2025-01-01 14:56:02
    {"MD5": {"QuickSFV.EXE": 103424, "QuickSFV.ini": 155, "fitgirl-bins.md5": 340}, "fg-01.bin": 2065405434, "fg-02.bin": 1217032080, "fg-03.bin": 249123688, "fg-04.bin": 28554730, "fg-05.bin": 1943073, "fg-06.bin": 92784, "setup.exe": 5749036, "FitGirl ...
创建时间: 2018-11-12 11:11:33 大小:3.32 GB 文件数量:12 热度:9 最近下载:2025-03-27 23:54:03
    {"001.jpg": 177636, "002.jpg": 60258, "003.jpg": 216380, "004.jpg": 793169, "005.jpg": 449590, "006.jpg": 719023, "007.jpg": 788018, "008.jpg": 705776, "009.jpg": 765217, "010.png": 680921, "011.png": 663909, "012.png": 764580, "013.png": 729454, "014.png ...
创建时间: 2018-11-12 11:50:54 大小:124.69 MB 文件数量:229 热度:15 最近下载:2025-03-28 20:44:03
    {"001.jpg": 177636, "002.jpg": 60258, "003.jpg": 216380, "004.jpg": 793169, "005.jpg": 449590, "006.jpg": 719023, "007.jpg": 788018, "008.jpg": 705776, "009.jpg": 765217, "010.png": 680921, "011.png": 663909, "012.png": 764580, "013.png": 729454, "014.png ...
创建时间: 2018-11-12 18:50:02 大小:124.69 MB 文件数量:229 热度:14 最近下载:2024-12-12 15:25:01
    ... , "蜩之记.A.Samurai.Chronicle.2014.BD720P.X264.AAC.Japanese ...
创建时间: 2018-11-12 22:31:54 大小:2.4 GB 文件数量:7 热度:20 最近下载:2025-08-07 19:16:04
    ... 11123209, "Jul 16 1971, Jewish Chronicle Supplement, #23, Israel (en ... 10380357, "May 14 1971, Jewish Chronicle Supplement, #19, Israel (en ... , "Oct 15 1971, Jewish Chronicle Supplement, #26, Israel (en ... , "Sep 10 1971, Jewish Chronicle Supplement, #20, Israel (en ...
创建时间: 2018-11-12 23:36:45 大小:203.62 MB 文件数量:23 热度:11 最近下载:2025-01-25 00:32:03